Regional Weather Roundup
Issued by NWS

Home | Current Version | Previous Version | Graphics & Text | Print | Product List | Glossary On
Versions: 1 2 3 4 5 6 7 8 9 10 11 12 13 14 15 16 17 18 19 20 21 22 23 24 25 26 27 28 29 30 31 32 33 34 35 36 37 38 39 40 41 42 43 44 45 46 47 48 49 50
000
ASUS43 KIND 192309
RWRIN

WEATHER ROUNDUP FOR INDIANA
NATIONAL WEATHER SERVICE INDIANAPOLIS IN
600 PM EST SUN NOV 19 2017

NOTE: "FAIR" INDICATES FEW OR NO CLOUDS BELOW 12,000 FEET WITH NO
SIGNIFICANT WEATHER AND/OR OBSTRUCTIONS TO VISIBILITY.

* - STATION DOES NOT REPORT WEATHER SUCH AS PRECIPITATION OR FOG.

+ - STATION NOT QUALITY CONTROLLED BY THE NATIONAL WEATHER SERVICE.
    USE DATA WITH CAUTION...ESPECIALLY DEWPOINT AND RELATIVE
    HUMIDITY OBSERVATIONS.

INZ001>003-010>013-019-020-200000-
NORTHWEST INDIANA

CITY           SKY/WX    TMP DP  RH WIND       PRES   REMARKS
GARY /AIRPORT/ PTCLDY    36  16  44 W16       30.07R WCI  26
KNOX *+        CLEAR     32  23  69 W9        30.06R WCI  24
LA PORTE +     CLEAR     31  19  61 W9        30.05R WCI  23
MICHIGAN CITY+ CLEAR     32  19  59 W8        30.05R WCI  25
MONTICELLO +   CLEAR     31  22  69 W10G16    30.08R WCI  22
RENSSELAER +   CLEAR     32  21  64 W12       30.09R WCI  23
VALPARAISO     PTCLDY    33  19  56 W10       30.06R WCI  25

$$

LMZ046-743>745-200000-
SOUTHERN LAKE MICHIGAN

STATION/POSITION TIME  TEMP    WIND        PRES    WAVE
                       AIR SEA DIR/SP/G            HT
                 (UTC) (F)     (DEG/KT/KT) (MB)    (FT)
BURNS HARBOR     2214   36     270/ 18/ 20 1017.6S
MICHIGAN CITY    2240   35     250/ 19/ 21   N/A

$$

INZ004-005-014>016-021>024-200000-
NORTH CENTRAL INDIANA

CITY           SKY/WX    TMP DP  RH WIND       PRES   REMARKS
ELKHART        MOCLDY    30  21  69 W9        30.02R WCI  22
GOSHEN         PTCLDY    30  20  66 W10       30.03R WCI  21
LOGANSPORT +   CLEAR     30  25  80 W10       30.08R WCI  21
PERU/GRISSOM   PTCLDY    30  25  81 W14       30.06R WCI  19
ROCHESTER +    CLEAR     32  23  69 W8        30.05R WCI  25
SOUTH BEND     CLEAR     29  22  75 W8        30.04R WCI  21
WARSAW +       PTCLDY    32  23  69 W9        30.03R WCI  24

$$

INZ006>009-017-018-025>027-200000-
NORTHEAST INDIANA

CITY           SKY/WX    TMP DP  RH WIND       PRES   REMARKS
AUBURN +       CLOUDY    32  23  69 W6        30.02R WCI  26
FORT WAYNE     MOCLDY    33  25  72 W13       30.03R WCI  24
HUNTINGTON +   MOCLDY    30  23  75 W14       30.05R WCI  19
KENDALLVILLE + PTCLDY    31  22  70 W6        30.00R WCI  25

$$

INZ028-029-035-036-043>045-051>053-200000-
WEST CENTRAL INDIANA

CITY           SKY/WX    TMP DP  RH WIND       PRES   REMARKS
CRAWFORDSVL +  CLEAR     30  22  73 W9        30.09R WCI  21
GREENCASTLE +  PTCLDY    32  23  69 W3        30.12R
LAFAYETTE      CLEAR     30  23  75 W13       30.11R WCI  20
TERRE HAUTE    CLEAR     34  20  56 W7        30.16R WCI  28

$$

INZ030>032-037>040-046>048-054>057-064-065-200000-
CENTRAL INDIANA

CITY           SKY/WX    TMP DP  RH WIND       PRES   REMARKS
CP ATTERBURY + MOCLDY    32  23  69 W6        30.12R WCI  26
COLUMBUS       CLEAR     32  21  64 W6        30.12S WCI  26
FISHERS *+     PTCLDY    28  25  86 CALM      30.10R
FRANKFORT +    CLEAR     33  27  77 W15       30.11R WCI  23
GREENWOOD *+   PTCLDY    33  25  73 W5        30.10R WCI  28
INDIANAPOLIS   PTCLDY    31  22  69 W12       30.11R WCI  22
-EAGLE CREEK   CLEAR     32  22  66 W6        30.10R WCI  26
KOKOMO +       CLEAR     31  25  78 W12       30.08R WCI  22
MARION +       MOCLDY    30  25  80 W12       30.08R WCI  20
MT COMFORT *+  PTCLDY    27  25  93 W7        30.10R WCI  19
SHELBYVILLE    PTCLDY    31  21  66 W6        30.09F WCI  25
ZIONSVILLE +   PTCLDY    29  23  78 W7        30.09R WCI  22

$$

INZ033-034-041-042-049-050-058-059-200000-
EAST CENTRAL INDIANA

CITY           SKY/WX    TMP DP  RH WIND       PRES   REMARKS
MUNCIE         MOCLDY    31  23  72 W9        30.07R WCI  23
RICHMOND +     MOCLDY    28  23  80 W15G23    30.07R WCI  17

$$

INZ060-061-067>069-081>083-085>088-200000-
SOUTHWEST INDIANA

CITY           SKY/WX    TMP DP  RH WIND       PRES   REMARKS
EVANSVILLE     CLEAR     37  21  52 W6        30.19R WCI  32
HUNTINGBURG +  CLEAR     35  23  61 W8        30.18R WCI  29
WASHINGTON +   CLEAR     34  21  58 W7        30.16S WCI  28

$$

INZ062-063-066-070>080-084-089>092-200000-
SOUTH CENTRAL AND SOUTHEAST INDIANA

CITY           SKY/WX    TMP DP  RH WIND       PRES   REMARKS
BEDFORD +      CLEAR     32  21  64 W7        30.12S WCI  26
BLOOMINGTON    PTCLDY    33  21  61 W6        30.12R WCI  28
MADISON *+     CLEAR     34  23  64 W7        30.13S WCI  28
NORTH VERNON + PTCLDY    32  23  69 W8        30.12R WCI  25
SEYMOUR +      CLEAR     34  23  64 W8        30.13S WCI  27

$$





USA.gov is the U.S. government's official web portal to all federal, state and local government web resources and services.